This demonstration page uses our WeatherBlox Daily Observations layout. Learn more.

Left ArrowRight Arrow

Hourly Observations for February 18, 2018

Temp ( °F °C ) Dew Point ( °F °C ) Humidity (%) Winds ( mph kmh ) Pressure ( in mb ) Visibility ( mi km ) Precip ( " mm )
12:54 am 00:54 Clear 27 -2.8 21 -6.1 78 78 SSE 7 11 30.07 1018 10 16 0.00 0.00
1:54 am 01:54 Clear 29 -1.7 22 -5.6 75 75 S 12 19 30.04 1017 10 16 0.00 0.00
2:54 am 02:54 Clear 32 0 24 -4.4 73 73 S 13 20 29.99 1016 10 16 0.00 0.00
3:54 am 03:54 Clear 34 1.1 22 -5.6 61 61 S 15 24 29.96 1014 10 16 0.00 0.00
4:54 am 04:54 Clear 34 1.1 20 -6.7 56 56 S 13 20 29.94 1014 10 16 0.00 0.00
5:54 am 05:54 Clear 37 2.8 20 -6.7 50 50 S 15 24 29.90 1013 10 16 0.00 0.00
6:54 am 06:54 Clear 39 3.9 22 -5.6 50 50 S 17 28 29.86 1011 10 16 0.00 0.00
7:54 am 07:54 Sunny 40 4.4 24 -4.4 53 53 S 20 31 29.83 1010 10 16 0.00 0.00
8:54 am 08:54 Sunny 44 6.7 26 -3.3 49 49 S 28 44 29.80 1009 10 16 0.00 0.00
9:54 am 09:54 Sunny 47 8.3 27 -2.8 46 46 S 35 56 29.77 1008 10 16 0.00 0.00
10:54 am 10:54 Sunny 51 10.6 27 -2.8 39 39 S 32 52 29.73 1007 10 16 0.00 0.00
11:54 am 11:54 Sunny 54 12.2 27 -2.8 35 35 S 30 48 29.70 1006 10 16 0.00 0.00
12:54 pm 12:54 Sunny 56 13.3 29 -1.7 36 36 S 28 44 29.65 1004 10 16 0.00 0.00
1:54 pm 13:54 Sunny 57 13.9 33 0.6 41 41 S 30 48 29.58 1002 10 16 0.00 0.00
2:54 pm 14:54 Sunny 57 13.9 36 2.2 45 45 SSW 28 44 29.55 1001 10 16 0.00 0.00
3:54 pm 15:54 Sunny 57 13.9 37 2.8 47 47 S 20 31 29.57 1002 10 16 0.00 0.00
4:54 pm 16:54 Sunny 57 13.9 39 3.9 51 51 S 25 41 29.56 1001 10 16 0.00 0.00
5:54 pm 17:54 Sunny 51 10.6 39 3.9 64 64 SSE 10 17 29.59 1002 10 16 0.00 0.00
6:54 pm 18:54 Clear 46 7.8 38 3.3 73 73 SE 6 9 29.60 1002 10 16 0.00 0.00
7:54 pm 19:54 Clear 45 7.2 37 2.8 74 74 SE 6 9 29.61 1003 10 16 0.00 0.00
8:54 pm 20:54 Clear 45 7.2 39 3.9 80 80 S 6 9 29.62 1003 10 16 0.00 0.00
9:54 pm 21:54 Cloudy 45 7.2 40 4.4 83 83 SE 6 9 29.63 1003 10 16 0.00 0.00
10:31 pm 22:31 Cloudy 38 3.3 32 0 79 79 N 15 24 29.65 1004 10 16 0.00 0.00
10:54 pm 22:54 Cloudy 36 2.2 31 -0.6 82 82 N 14 22 29.65 1004 10 16 0.00 0.00
11:54 pm 23:54 Windy with Snow Likely 34 1.1 28 -2.2 79 79 NNE 20 31 29.66 1004 9 14 0.00 0.03

Powered by AerisWeather